Skip Page Navigation
NASA JPL Caltech
NASA Logo - Jet Propulsion Laboratory + View the NASA Portal
+ Center for Near-Earth Object Studies
JPL Home Earth Solar System Stars & Galaxies Technology
JPL Solar System Dynamics
BODIES ORBITS EPHEMERIDES TOOLS PHYSICAL DATA DISCOVERY FAQ SITE MAP
IMPORTANT: The SSD Announcement email list is now available. Major changes are coming in the near future, including possible hostname and/or URL changes. To be notified of such changes, subscribe to this email list.

Please visit this page for more details.


JPL Small-Body Database Browser
Search: [ help ]  
193332 (2000 TP35)
Classification: Outer Main-belt Asteroid          SPK-ID: 2193332
Ephemeris | Orbit Diagram | Orbital Elements | Mission Design | Physical Parameters | Discovery Circumstances | Close-Approach Data ]

[ show orbit diagram ]
Orbital Elements at Epoch 2458600.5 (2019-Apr-27.0) TDB
Reference: JPL 12 (heliocentric ecliptic J2000)
 Element Value Uncertainty (1-sigma)   Units 
e .2621946520044076 5.4168e-08  
a 3.904462962266053 5.479e-08 au
q 2.880733654610607 2.2133e-07 au
i 1.174154953828553 7.9091e-06 deg
node 310.3182039800507 0.00036791 deg
peri 102.9506181785668 0.00036836 deg
M 127.1496657024544 1.9964e-05 deg
tp 2457605.202049028641
(2016-Aug-04.70204903)
0.00014297 TDB
period 2817.996102232556
7.72
5.9316e-05
1.624e-07
d
yr
n .1277503541310047 2.689e-09 deg/d
Q 4.9281922699215 6.9156e-08 au
  Orbit Determination Parameters
   # obs. used (total)      337  
   data-arc span      6786 days (18.58 yr)  
   first obs. used      2000-09-25  
   last obs. used      2019-04-25  
   planetary ephem.      DE431  
   SB-pert. ephem.      SB431-N16  
   condition code      0  
   norm. resid. RMS      .59972  
   source      ORB  
   producer      Otto Matic  
   solution date      2019-Jul-13 04:32:06  

Additional Information
 Earth MOID = 1.89192 au 
 Jupiter MOID = .48847 au 
 T_jup = 3.004 
[ show covariance matrix ]

Ephemeris | Orbit Diagram | Orbital Elements | Mission Design | Physical Parameters | Discovery Circumstances | Close-Approach Data ]

Physical Parameter Table
Parameter Symbol Value Units Sigma Reference Notes
absolute magnitude H 15.0   n/a MPO436954  
diameter diameter 6.328 km 0.665 urn:nasa:pds:neowise_diameters_albedos::2.0[hildas] (http://adsabs.harvard.edu/abs/2012ApJ...744..197G)  
geometric albedo albedo 0.053   0.013 urn:nasa:pds:neowise_diameters_albedos::2.0[hildas] (http://adsabs.harvard.edu/abs/2012ApJ...744..197G)  

193332 (2000 TP35)          Discovered 2000-Oct-06 by LONEOS at Anderson Mesa
Reference: 20081113/Numbers.arcLast Updated: 2008-11-17

[ show close-approach data ]
Ephemeris | Orbit Diagram | Orbital Elements | Mission Design | Physical Parameters | Discovery Circumstances | Close-Approach Data ]
ABOUT SSD CREDITS/AWARDS PRIVACY/COPYRIGHT GLOSSARY LINKS
FirstGov 2019-Oct-15 07:54 UT
(server date/time)  
NASA Home Page
Site Manager:   Ryan S. Park
Webmaster  Alan B. Chamberlin